Weather in Sosua

Dominican Republic     19°46′25″N   70°29′52″W
temp.,
°C
wind,
m/s
gust,
m/s
humid.,
%
clouds,
%
prec.,
mm/h
press.,
hPa
HPBL,
m
28 june, tue
tue2823:00+26ese598196 0.7 1018498
02:00+24se4786100 0.7 1017316
05:00+24se4787100 0.0 1017340
08:00+27se4877100 0.0 1018729
11:00+29e686235 0.0 10191204
14:00+30ene896097 0.0 1017858
17:00+28e81073100 0.0 1016711
20:00+27ese6980100 0.0 1018830
29 june, wed
wed2923:00+26ese598697 0.1 1020663
02:00+25ese598679 0.3 1019637
05:00+24se488826 0.0 1018497
08:00+26se477811 0.4 1019694
11:00+29e78658 0.2 10191189
14:00+29e89635 0.2 10181024
17:00+29e810676 0.0 1017997
20:00+27ese698084 0.1 1018845
30 june, thu
thu3023:00+25ese598433 0.2 1019675
02:00+25se4787100 0.4 1018465
05:00+25se5886100 0.8 1017528
08:00+27ese5876100 1.4 1018874
11:00+28e687197 0.4 10181020
14:00+29e896576 0.4 10161225
17:00+29e896854 0.0 10151033
20:00+26ese698185 0.1 1017809
1 july, fri
fri123:00+25ese598784 0.3 1018559
02:00+24se488787 0.8 1016523
05:00+24se478798 0.4 1016445
08:00+26se487952 0.4 1017673
11:00+29e686110 0.1 10161263
14:00+29e89675 0.3 1016948
17:00+29e810705 0.0 1014938
20:00+27ese6979100 0.1 1016795
2 july, sat
sat223:00+25se5986100 0.2 1017561
02:00+24se4789100 0.7 1015442
05:00+24se478994 0.1 1015424
08:00+26ese4881100 0.4 1017688
11:00+28e6767100 0.1 10171082
14:00+29e7865100 0.1 10161106
17:00+28e7972100 0.0 1015939
20:00+26ese6981100 0.1 1016780